Regional Weather Roundup
Issued by NWS

Home | Current Version | Previous Version | Graphics & Text | Print | Product List | Glossary On
Versions: 1 2 3 4 5 6 7 8 9 10 11 12 13 14 15 16 17 18 19 20 21 22 23 24 25 26 27 28 29 30 31 32 33 34 35 36 37 38 39 40 41 42 43 44 45 46 47 48 49 50
000
ASUS43 KLOT 060008
RWRIL

ILLINOIS REGIONAL WEATHER ROUNDUP
NATIONAL WEATHER SERVICE CHICAGO/ROMEOVILLE IL
700 PM CDT THU MAY 05 2016

NOTE: "FAIR" INDICATES FEW OR NO CLOUDS BELOW 12,000 FEET WITH NO
SIGNIFICANT WEATHER AND/OR OBSTRUCTIONS TO VISIBILITY.

* THESE STATIONS ARE NOT UNDER NWS QUALITY CONTROL. THEY ALSO MAY NOT
  REPORT WEATHER SUCH AS PRECIPITATION OR FOG.

ILZ001-002-007-009-015-016-024-060100-
NORTHWEST ILLINOIS

CITY           SKY/WX    TMP DP  RH WIND       PRES   REMARKS
MOLINE         SUNNY     66  35  31 NW5       29.98F
6HR MIN TEMP:  62; 6HR MAX TEMP:  68;

STERLING*      SUNNY     64  39  39 W10       29.98F
SAVANNA*       SUNNY     64  38  37 NW5       29.99S
$$

ILZ003-004-008-010-011-017-018-060100-
NORTH CENTRAL ILLINOIS

CITY           SKY/WX    TMP DP  RH WIND       PRES   REMARKS
ROCKFORD       PTCLDY    64  37  36 NW7       29.99S
6HR MIN TEMP:  61; 6HR MAX TEMP:  67;

FREEPORT*      SUNNY     62  38  42 NW6       29.99S
ROCHELLE*      CLEAR     63  38  39 NW7       29.98S
DE KALB*       CLEAR     62  38  41 NW6       29.98S
$$

ILZ005-006-012>014-019>023-060100-
NORTHEAST ILLINOIS

CITY           SKY/WX    TMP DP  RH WIND       PRES   REMARKS
CHICAGO-OHARE  PTCLDY    57  38  48 E6        29.96F
6HR MIN TEMP:  57; 6HR MAX TEMP:  61;

CHICAGO-MIDWAY PTCLDY    56  37  49 E7        29.97F
6HR MIN TEMP:  56; 6HR MAX TEMP:  61;

AURORA         CLEAR     64  41  42 NW9       29.97S
6HR MIN TEMP:  60; 6HR MAX TEMP:  66;

LANSING*       CLEAR     53  40  61 E6        29.98F
JOLIET*        MOCLDY    65  42  42 NW8       29.96S
WAUKEGAN       CLEAR     50  38  63 E3        29.97S
6HR MIN TEMP:  50; 6HR MAX TEMP:  58;

DUPAGE AIRPORT CLEAR     63  38  39 NW10      29.96S
6HR MIN TEMP:  60; 6HR MAX TEMP:  67;

KANKAKEE*      CLEAR     60  42  51 NE8       29.97S
WHEELING       CLEAR     54  37  52 E5        29.98F
6HR MIN TEMP:  54; 6HR MAX TEMP:  59;

MORRIS*        PTCLDY    64  41  41 NW6       29.96S
ROMEOVILLE*    PTCLDY    59  42  54 E6        29.97R
NORTHERLY ISL    N/A     47  38  71 NE2         N/A
NORTHERLY ISL    N/A     47  38  71 NE2         N/A
$$

LMZ740>746-060100-
SOUTHERN LAKE MICHIGAN

STATION/POSITION SKY/WX   TEMP    WIND        PRES    VSBY  WAVE
                          AIR SEA DIR/SP/G                  HT/PER
                          (F)     (DEG/KT/KT) (MB)    (MI)  (FT/S)
SOUTHERN BUOY              43 40   20/  4/  6 1014.7F         2/ 5
WILMETTE HARBOR            45 44  290/  2/  4   N/A           3/ 6
HARRISON CRIB              47     350/  2/  2   N/A
BURNHAM HARBOR             47      80/  2/  5   N/A
CALUMET HARBOR                                1014.9F
BURNS HARBOR               48      70/  7/  8 1015.9F
MICHIGAN CITY              48     340/  4/  5   N/A
ST. JOSEPH                 45 47                N/A           3/ 5
$$

ILZ025>027-034>036-040-047-049-050-058-095>099-060100-
WEST-CENTRAL ILLINOIS

CITY           SKY/WX    TMP DP  RH WIND       PRES   REMARKS
QUINCY         SUNNY     64  38  38 N9        30.01F
GALESBURG*     SUNNY     63  36  36 NW5       30.00S
MACOMB*        SUNNY     65  34  31 NW7       30.03S
JACKSONVILLE*  MOSUNNY   65  39  37 N8        29.99S
PITTSFIELD*    SUNNY     64  39  39 N8        30.02S
$$

ILZ028>032-037-038-041>044-048-051>054-059>061-060100-
CENTRAL ILLINOIS

CITY           SKY/WX    TMP DP  RH WIND       PRES   REMARKS
PONTIAC        PTCLDY    65  43  44 N8        29.98S
BLOOMINGTON    CLEAR     65  43  44 N10       29.99S
DECATUR        CLEAR     63  42  46 N7        29.97S
PEORIA         PTCLDY    66  40  38 VRB6      29.99S
6HR MIN TEMP:  60; 6HR MAX TEMP:  68;

LACON*         CLEAR     64  40  42 NW8       29.98S
LINCOLN*       CLEAR     65  43  43 NW5       29.98F
SPRINGFIELD    MOCLDY    67  42  40 N7        29.99S
6HR MIN TEMP:  62; 6HR MAX TEMP:  69;

TAYLORVILLE    MOCLDY    64  42  43 N10       29.98F
6HR MIN TEMP:  59; 6HR MAX TEMP:  66;

$$

ILZ033-039-045-046-055>057-062-063-060100-
EAST-CENTRAL ILLINOIS

CITY           SKY/WX    TMP DP  RH WIND       PRES   REMARKS
CHAMPAIGN      CLEAR     64  41  42 N7        29.96S
RANTOUL*       PTCLDY    65  44  45 NE7       29.96S
MATTOON        PTCLDY    63  40  42 N12       29.95S
PARIS*         CLEAR     63  42  47 N5        29.96S
$$

ILZ079-100>102-060100-
SOUTHWEST ILLINOIS

CITY           SKY/WX    TMP DP  RH WIND       PRES   REMARKS
BELLEVILLE     CLEAR     62  46  55 N5        29.99S
CAHOKIA*       CLEAR     65  43  44 N7        30.00S
SPARTA*        CLEAR     60  46  59 N3        30.01S
$$

ILZ064>066-069>071-074>076-080>082-084>086-088>090-092>094-060100-
SOUTH-CENTRAL ILLINOIS

CITY           SKY/WX    TMP DP  RH WIND       PRES   REMARKS
CARBONDALE     CLEAR     61  44  53 NW8       29.99F
6HR MIN TEMP:  57; 6HR MAX TEMP:  63;

CAIRO*         MOCLDY    60  44  54 N8G16     30.00R
EFFINGHAM*     PTCLDY    64  45  48 NW6       29.98S
MARION         CLEAR     61  46  59 CALM      29.99F
MT. VERNON     CLEAR     63  45  51 NW3       29.99R
CENTRALIA*     CLEAR     63  49  60 NW8       29.98S
SALEM*         CLEAR     64  46  52 NW8       29.98S
METROPOLIS*    PTCLDY    60  47  63 N5        30.00R
$$

ILZ067-068-072-073-078-083-087-091-060100-
SOUTHEAST ILLINOIS

CITY           SKY/WX    TMP DP  RH WIND       PRES   REMARKS
LAWRENCEVILLE  CLEAR     63  42  46 N10       29.95R
FLORA*         PTCLDY    64  46  52 N7        29.97R
FAIRFIELD*     PTCLDY    63  46  55 NW5       29.95S
HARRISBURG*    PTCLDY    61  47  61 NW8       29.98S
ROBINSON*      CLEAR     60  46  59 NE6       29.96R
CARMI*         CLEAR     60  49  67 W7        29.95S
$$

ABBREVIATIONS USED IN REMARKS
   TC - TEMPERATURE IN CELSIUS
  WCI - WIND CHILL INDEX
   HX - HEAT INDEX
  VSB - VISIBILITY
$$





USA.gov is the U.S. government's official web portal to all federal, state and local government web resources and services.